Tracking 29528 objects as of 15-Sep-2024
HD Live streaming from Space Station
objects crossing your sky now

STARLINK-1271

Track STARLINK-1271 now!
10-day predictions
STARLINK-1271 is classified as:


NORAD ID: 45217
Int'l Code: 2020-012AR
Perigee: 553.3 km
Apogee: 555.5 km
Inclination: 53.1 °
Period: 95.6 minutes
Semi major axis: 6925 km
RCS: Unknown
Launch date: February 17, 2020
Source: United States (US)
Launch site: AIR FORCE EASTERN TEST RANGE (AFETR)
Your satellite tracking list
Your tracking list is empty




NASA's NSSDC Master Catalog

Two Line Element Set (TLE):
1 45217U 20012AR  24258.52798335 -.00001298  00000-0 -68260-4 0  9995
2 45217  53.0559 295.9869 0001566  88.8394 271.2774 15.06391946252614
Source of the keplerian elements: AFSPC